{"data":{"norad_id":52786,"intl_designator":"2022-058B","name":"GEESAT-1 02","alt_names":[],"object_type":"PAYLOAD","status":"ACTIVE","operator":null,"country":"PRC","launch_date":"2022-06-02","launch_site_code":"XICLF","launch_vehicle":null,"mission":null,"orbit_class":"UNKNOWN","rcs_meters":null,"size_class":null,"mass_kg":null,"dimensions":null,"purposes":[],"wikipedia_slug":null,"has_3d_model":false,"image_url":null,"decayed_at":null,"tle_current":{"epoch":"2026-09-20T21:57:56.733408Z","epoch_age_seconds":95834,"freshness":"FRESH","line1":"1 52786U 22058B   26263.91523997  .00000721  00000+0  11896-3 0  9996","line2":"2 52786  50.0000 120.6418 0022360 257.9581 101.8850 14.81611098234121","mean_motion":14.81611098,"eccentricity":0.002236,"inclination_deg":50,"raan_deg":120.6418,"arg_perigee_deg":257.9581,"mean_anomaly_deg":101.885,"bstar":0.00011896,"rev_number":23412,"period_min":97.191496604192,"perigee_km":608.58596780426,"apogee_km":639.90061246174,"semimajor_km":7002.380290133,"source":"CELESTRAK","updated_at":"2026-09-21T09:00:08.719832Z"}}}